Dallas Redbird, TX

8:08 PM CDT on September 22, 2017 (GMT -0500)
Redbird

Weather History for KRBD - October, 2012

Change the Weather History Date:

Monday, October 22, 2012

  Actual Average Record
Temperature  
Mean Temperature 78 °F -  
Max Temperature 84 °F 74 °F 90 °F (2003)
Min Temperature 73 °F 54 °F 42 °F (2006)
Cooling Degree Days 14    
Growing Degree Days 28 (Base 50)    
Moisture  
Dew Point 68 °F    
Average Humidity 76    
Maximum Humidity 88    
Minimum Humidity 53    
Precipitation  
Precipitation 0.00 in - - ()
Sea Level Pressure  
Sea Level Pressure 29.92 in    
Wind  
Wind Speed 10 mph (South)    
Max Wind Speed 15 mph    
Max Gust Speed 25 mph    
Visibility 10 miles    
Events      
Averages and records for this station are not official NWS values.
T = Trace of Precipitation, MM = Missing Value Source: NWS Daily Summary

Daily Weather History Graph

Daily Weather History Graph

Search for Another Location

Airport or City:

Trip Planner

Search our weather history database for the weather conditions in past years. The results will help you decide how hot, cold, wet, or windy it might be!

Date:

Astronomy

Oct. 22, 2012 Rise Set
Actual Time 7:37 AM CDT 6:45 PM CDT
Civil Twilight 7:12 AM CDT 7:10 PM CDT
Nautical Twilight 6:43 AM CDT 7:39 PM CDT
Astronomical Twilight 6:14 AM CDT 8:08 PM CDT
Moon 2:34 PM CDT (10/22) 12:47 AM CDT (10/22)
Length of Visible Light 11h 58m
Length of Day
11h 08m
First Quarter, 56% of the Moon is Illuminated
Oct 22
First Quarter
Oct 29
Full
Nov 6
Last Quarter
Nov 13
New
Nov 20
First Quarter

Hourly Weather History & Observations

Time (CDT) Temp. Heat Index Dew Point Humidity Pressure Visibility Wind Dir Wind Speed Gust Speed Precip Events Conditions
12:53 AM 77.0 °F - 66.9 °F 71% 29.86 in 10.0 mi South 12.7 mph 25.3 mph N/A   Clear
1:48 AM 75.2 °F - 68.0 °F 78% 29.89 in 10.0 mi South 13.8 mph 24.2 mph N/A   Mostly Cloudy
1:53 AM 75.9 °F - 68.0 °F 76% 29.87 in 10.0 mi South 11.5 mph 24.2 mph N/A   Mostly Cloudy
2:53 AM 73.9 °F - 66.9 °F 79% 29.87 in 10.0 mi South 13.8 mph 23.0 mph N/A   Mostly Cloudy
3:53 AM 73.9 °F - 68.0 °F 82% 29.87 in 10.0 mi South 11.5 mph 19.6 mph N/A   Mostly Cloudy
4:53 AM 73.9 °F - 68.0 °F 82% 29.89 in 10.0 mi South 10.4 mph 17.3 mph N/A   Mostly Cloudy
5:53 AM 73.9 °F - 68.0 °F 82% 29.91 in 10.0 mi South 8.1 mph 18.4 mph N/A   Mostly Cloudy
6:00 AM 73.4 °F - 68.0 °F 83% 29.93 in 10.0 mi South 8.1 mph 18.4 mph N/A   Mostly Cloudy
6:53 AM 73.9 °F - 69.1 °F 85% 29.91 in 10.0 mi South 8.1 mph 17.3 mph N/A   Mostly Cloudy
7:01 AM 73.4 °F - 69.8 °F 88% 29.94 in 10.0 mi South 9.2 mph - N/A   Overcast
7:17 AM 73.4 °F - 69.8 °F 88% 29.94 in 10.0 mi South 9.2 mph 16.1 mph N/A   Mostly Cloudy
7:28 AM 73.4 °F - 69.8 °F 88% 29.94 in 10.0 mi South 9.2 mph - N/A   Mostly Cloudy
7:35 AM 73.4 °F - 69.8 °F 88% 29.95 in 10.0 mi South 9.2 mph - N/A   Mostly Cloudy
7:53 AM 73.9 °F - 69.1 °F 85% 29.93 in 10.0 mi SSE 9.2 mph 17.3 mph N/A   Overcast
8:53 AM 75.0 °F - 69.1 °F 82% 29.96 in 10.0 mi South 6.9 mph - N/A   Overcast
9:53 AM 77.0 °F - 69.1 °F 76% 29.98 in 10.0 mi South 8.1 mph 17.3 mph N/A   Overcast
10:53 AM 79.0 °F - 69.1 °F 72% 29.97 in 10.0 mi South 11.5 mph 19.6 mph N/A   Mostly Cloudy
11:20 AM 80.6 °F 83.9 °F 69.8 °F 70% 29.99 in 10.0 mi South 9.2 mph 19.6 mph N/A   Mostly Cloudy
11:53 AM 82.0 °F 84.9 °F 68.0 °F 62% 29.96 in 10.0 mi South 9.2 mph 24.2 mph N/A   Mostly Cloudy
12:53 PM 84.0 °F 86.5 °F 66.9 °F 56% 29.97 in 10.0 mi South 8.1 mph 19.6 mph N/A   Mostly Cloudy
1:53 PM 84.0 °F 85.8 °F 64.9 °F 53% 29.93 in 10.0 mi Variable 6.9 mph - N/A   Mostly Cloudy
2:53 PM 77.0 °F - 62.1 °F 60% 29.93 in 10.0 mi WNW 15.0 mph - N/A   Mostly Cloudy
3:00 PM 77.0 °F - 62.6 °F 61% 29.94 in 10.0 mi NW 15.0 mph - N/A   Mostly Cloudy
3:53 PM 79.0 °F - 64.0 °F 60% 29.92 in 10.0 mi NW 6.9 mph - N/A   Clear
4:53 PM 79.0 °F - 63.0 °F 58% 29.89 in 10.0 mi NE 5.8 mph - N/A   Clear
5:53 PM 75.9 °F - 68.0 °F 76% 29.92 in 10.0 mi SSE 10.4 mph - 0.00 in   Partly Cloudy
6:53 PM 75.0 °F - 68.0 °F 79% 29.90 in 10.0 mi SE 11.5 mph - N/A   Clear
8:53 PM 73.9 °F - 69.1 °F 85% 29.89 in 10.0 mi SSE 6.9 mph - N/A   Clear
9:53 PM 73.9 °F - 68.0 °F 82% 29.89 in 10.0 mi Variable 6.9 mph - N/A   Clear
10:53 PM 73.9 °F - 68.0 °F 82% 29.90 in 10.0 mi Variable 5.8 mph - N/A   Clear
11:53 PM 73.9 °F - 66.9 °F 79% 29.91 in 10.0 mi South 8.1 mph - N/A   Clear